Tracking 19562 objects as of 24-Mar-2019
HD Live streaming from Space Station
objects crossing your sky now

SATCOM 3

Track SATCOM 3 now!
SATCOM 3 is classified as:


NORAD ID: 11635
Int'l Code: 1979-101A
Perigee: 8,213.9 km
Apogee: 35,607.8 km
Inclination: 10.0 °
Period: 788.9 minutes
Semi major axis: 28281 km
RCS: 6.1128 m2 (large)
Launch date: December 7, 1979
Source: United States (US)
Launch site: AIR FORCE EASTERN TEST RANGE (AFETR)
aabbcc
Your satellite tracking list
Your tracking list is empty




NASA's NSSDC Master Catalog

Two Line Element Set (TLE):
1 11635U 79101A   19083.15044762 -.00000157  00000-0  00000+0 0  9997
2 11635   9.9934 346.7555 4843030 323.4158 230.7108  1.82532893175730
Source of the keplerian elements: AFSPC